Location: S�tio Afonso Slominski
(26.0674°S, 49.3455°W)
Time: 06:55:27
(UTC+00:00)

Daily predictions for brighter satellites

Satellite Brightness Start Highest point End
(mag) Time Altitude Azimuth Time Altitude Azimuth Time Altitude Azimuth
Meteor 2-1 Rocket 4.3 22:27:43 10° N 22:33:05 55° E 22:38:36 10° SSE
Aureole 3 3.1 22:34:26 10° N 22:37:44 69° E 22:41:49 10° S
IRS-1C Rocket 4.2 22:32:24 10° SSE 22:37:45 90° E 22:43:02 10° NNW
Cosmos 2266 Rocket 4.2 22:33:21 10° S 22:39:42 56° E 22:45:57 10° NNE
Cosmos 2058 Rocket 4.1 22:35:46 10° NNW 22:40:11 53° W 22:44:37 10° S
Cosmos 1655 Rocket 4.1 22:36:47 10° S 22:43:13 77° E 22:49:30 10° N
HJ-1C 3.6 22:41:41 10° SSE 22:44:54 46° E 22:48:05 10° N
Okean-O 2.6 22:41:25 10° SSE 22:45:54 81° E 22:50:20 10° N
SEDSat Delta rocket 3.7 22:42:19 10° W 22:46:24 51° S 22:50:52 10° ESE
Centaur AC-72 4.1 22:42:39 10° NNW 22:47:17 22° NNE 22:54:05 10° E
In-Cosmos 22 Rocket 4.3 22:41:31 10° S 22:47:17 85° E 22:53:06 10° N
Cosmos 1825 3.2 22:46:43 10° SSE 22:49:57 26° E 22:53:10 10° NE
OAO 2 Rocket 4.3 22:46:20 10° WSW 22:51:28 44° SSE 22:56:31 10° E
ATLAS 3B R/B 2.9 22:46:13 10° NNW 22:53:36 68° ENE 23:01:01 10° SSE
CZ-2C R/B 4.3 22:52:37 10° S 22:57:10 43° WSW 23:01:48 10° NW
Cosmos 1441 Rocket 3.5 22:54:46 10° S 22:58:26 45° E 23:02:05 10° NNE
H-2A R/B 2.0 22:53:30 10° S 22:58:31 86° W 23:03:25 10° NNW
Cosmos 1408 2.5 22:56:12 10° S 22:59:55 72° E 23:03:33 10° N
Aurora 2 Rocket 3.2 22:53:15 10° W 23:00:29 80° N 23:04:52 13° E
SL-8 R/B 3.7 22:57:00 10° SW 23:01:49 77° SE 23:05:45 15° NE
Atlas Centaur 2 1.8 23:00:13 10° WSW 23:03:42 46° S 23:06:59 12° E
CZ-2C R/B 3.9 22:59:28 10° NNE 23:04:09 64° ESE 23:08:55 10° S
YAOGAN 1 3.5 23:02:23 10° S 23:06:40 53° WSW 23:10:52 10° NNW
Cosmos 2369 Rocket 2.7 23:01:39 10° S 23:07:05 42° ESE 23:11:18 16° NE
SJ-6B 4.1 23:05:56 10° SE 23:08:41 19° E 23:09:20 18° ENE
Intelsat 5-3 Rocket 3.8 22:56:35 10° WNW 23:08:41 64° N 23:12:36 16° E
Helios 1A Rocket 3.3 23:04:52 10° S 23:08:59 69° WSW 23:13:03 10° NNW
Cosmos 405 3.9 23:08:06 17° NE 23:10:04 28° E 23:13:08 10° SSE
Cosmos 1943 4.2 23:04:47 10° NW 23:10:13 50° WSW 23:15:42 10° S
Cosmos 1892 4.1 23:12:25 10° SSW 23:16:02 39° W 23:19:34 10° NNW
Cosmos 1943 Rocket 2.3 23:15:25 10° SSW 23:20:56 74° WNW 23:26:18 11° N
CZ-2C R/B 3.2 23:18:29 10° SW 23:21:33 22° S 23:24:46 10° ESE
GPS 2-18 Rocket1 3.9 23:18:48 10° WNW 23:22:25 35° N 23:23:45 27° NE
CSL-04 Rocket 3.7 23:17:37 10° SSE 23:22:58 85° WSW 23:28:17 10° NNW
Aureole 3 Rocket 4.0 23:18:30 10° N 23:23:40 87° W 23:31:11 10° S
NOSS 3-3 (A) 3.7 23:18:10 10° SSW 23:24:10 88° ESE 23:28:12 19° NNE
NOSS 3-3 (C) 3.7 23:18:15 10° SSW 23:24:16 87° ESE 23:28:17 19° NNE
Yuri Rocket 3.2 23:22:35 10° W 23:26:43 65° S 23:29:51 19° E
OBJECT-B 2.1 23:24:33 10° SE 23:26:37 23° ESE 23:26:37 23° ESE
Cosmos 1553 Rocket 4.0 23:21:29 10° N 23:27:35 58° E 23:33:40 10° SSE
Cosmos 1184 Rocket 2.6 23:28:53 10° S 23:32:09 90° NNW 23:33:30 32° N
H-2A R/B 4.3 23:31:22 28° E 23:32:13 31° ESE 23:35:52 10° SSE
Cosmos 923 Rocket 4.0 23:33:58 10° N 23:39:08 62° ENE 23:44:20 10° SSE
Cosmos 1633 4.2 23:39:57 10° SSE 23:42:02 21° ESE 23:42:02 21° ESE
Cosmos 158 Rocket 3.9 23:37:38 10° N 23:42:59 77° ENE 23:48:16 10° SSE
MetOp-A 4.0 23:39:57 10° SSE 23:45:21 71° ENE 23:49:58 14° N
Cosmos 1680 Rocket 3.6 23:43:32 24° NNE 23:46:25 52° ENE 23:51:30 10° SSE
Cosmos 2151 3.1 23:43:06 10° S 23:47:20 53° E 23:48:01 47° ENE
Lacrosse 5 rocket 3.1 23:43:45 10° WSW 23:47:45 30° WNW 23:50:22 18° N
S3M 4.0 23:45:14 22° NNE 23:49:16 60° E 23:55:27 10° SSE
MOS 1 4.4 23:45:56 10° SSE 23:51:30 53° ENE 23:53:52 32° NNE
Cosmos-2242 3.6 23:50:20 11° NNW 23:54:32 59° W 23:58:55 10° S
